Lancaster, OH

4:55 PM EDT on September 29, 2016 (GMT -0400)
Fairfield County

Weather History for KLHQ - May, 2014

Change the Weather History Date:

Saturday, May 24, 2014

  Actual Average Record
Temperature  
Mean Temperature 60 °F -  
Max Temperature 75 °F 75 °F 90 °F (1964)
Min Temperature 45 °F 51 °F 35 °F (1956)
Degree Days  
Heating Degree Days 5    
Growing Degree Days 10 (Base 50)    
Moisture  
Dew Point 48 °F    
Average Humidity 68    
Maximum Humidity 97    
Minimum Humidity 38    
Precipitation  
Precipitation 0.00 in - - ()
Sea Level Pressure  
Sea Level Pressure 30.18 in    
Wind  
Wind Speed 2 mph (ENE)    
Max Wind Speed 8 mph    
Max Gust Speed -    
Visibility 9 miles    
Events      
Averages and records for this station are not official NWS values.
T = Trace of Precipitation, MM = Missing Value Source: NWS Daily Summary

Daily Weather History Graph

Daily Weather History Graph

Search for Another Location

Airport or City:

Trip Planner

Search our weather history database for the weather conditions in past years. The results will help you decide how hot, cold, wet, or windy it might be!

Date:

Astronomy

May. 24, 2014 Rise Set
Actual Time 6:08 AM EDT 8:46 PM EDT
Civil Twilight 5:37 AM EDT 9:17 PM EDT
Nautical Twilight 4:58 AM EDT 9:57 PM EDT
Astronomical Twilight 4:14 AM EDT 10:41 PM EDT
Moon 3:36 AM EDT (5/24) 4:43 PM EDT (5/24)
Length of Visible Light 15h 40m
Length of Day
14h 37m
Waning Crescent, 18% of the Moon is Illuminated
May 24
Waning Crescent
May 28
New
Jun 5
First Quarter
Jun 13
Full
Jun 19
Last Quarter

Hourly Weather History & Observations

Time (EDT) Temp. Windchill Dew Point Humidity Pressure Visibility Wind Dir Wind Speed Gust Speed Precip Events Conditions
1:53 AM 48.0 °F - 46.0 °F 93% 30.15 in 10.0 mi Calm Calm - N/A   Clear
2:53 AM 48.0 °F - 46.0 °F 93% 30.14 in 10.0 mi Calm Calm - N/A   Clear
3:53 AM 46.9 °F - 45.0 °F 93% 30.15 in 10.0 mi Calm Calm - N/A   Clear
4:53 AM 45.0 °F 43.5 °F 43.0 °F 93% 30.16 in 8.0 mi SW 3.5 mph - N/A   Clear
5:53 AM 46.0 °F - 45.0 °F 96% 30.17 in 2.5 mi Calm Calm - N/A   Clear
6:00 AM 45.0 °F - 43.0 °F 93% 30.18 in 9.0 mi Calm Calm - N/A   Clear
6:53 AM 46.9 °F - 46.0 °F 97% 30.19 in 7.0 mi Calm Calm - N/A   Clear
7:53 AM 54.0 °F - 50.0 °F 86% 30.22 in 10.0 mi Calm Calm - N/A   Clear
8:53 AM 61.0 °F - 51.1 °F 70% 30.22 in 10.0 mi Calm Calm - N/A   Clear
9:53 AM 64.0 °F - 48.9 °F 58% 30.23 in 10.0 mi NE 8.1 mph - N/A   Clear
10:53 AM 66.9 °F - 48.9 °F 52% 30.23 in 10.0 mi Variable 3.5 mph - N/A   Clear
11:53 AM 69.1 °F - 50.0 °F 51% 30.23 in 10.0 mi ENE 4.6 mph - N/A   Clear
12:53 PM 70.0 °F - 50.0 °F 49% 30.21 in 10.0 mi NE 8.1 mph - N/A   Partly Cloudy
1:53 PM 72.0 °F - 50.0 °F 46% 30.20 in 10.0 mi ENE 5.8 mph - N/A   Partly Cloudy
2:53 PM 73.0 °F - 48.0 °F 41% 30.18 in 10.0 mi Calm Calm - N/A   Partly Cloudy
3:53 PM 73.9 °F - 50.0 °F 43% 30.17 in 10.0 mi South 3.5 mph - N/A   Partly Cloudy
4:53 PM 75.0 °F - 48.9 °F 40% 30.15 in 10.0 mi NNW 5.8 mph - N/A   Clear
5:53 PM 75.0 °F - 48.0 °F 38% 30.15 in 10.0 mi Calm Calm - N/A   Partly Cloudy
7:53 PM 71.1 °F - 48.0 °F 44% 30.14 in 10.0 mi ENE 3.5 mph - N/A   Clear
8:53 PM 64.9 °F - 50.0 °F 58% 30.14 in 10.0 mi Calm Calm - N/A   Clear
9:53 PM 59.0 °F - 50.0 °F 72% 30.16 in 10.0 mi Calm Calm - N/A   Clear
11:53 PM 55.0 °F - 51.1 °F 86% 30.17 in 10.0 mi Calm Calm - N/A   Clear